This is the latest recevied weather packets stored in our database for station/object KD4WXI. If no packets are shown the sender has not sent any weather packets the latest 10 day(s).
| Time | Temp. | Humidity | Pressure | Rain* | Wind** | Luminosity | Snow |
|---|---|---|---|---|---|---|---|
| 1777210167 | 17.22° C | 94% | 1014.7 hPa | 0 mm | - | 175 W/m² | - |
| 1777209864 | 17.78° C | 94% | 1014.6 hPa | 0 mm | - | 131 W/m² | - |
| 1777209560 | 17.78° C | 94% | 1014.2 hPa | 0 mm | - | 174 W/m² | - |
| 1777209255 | 18.33° C | 94% | 1014.1 hPa | 0 mm | - | 131 W/m² | - |
| 1777208952 | 17.78° C | 93% | 1014 hPa | 0 mm | - | 320 W/m² | - |
| 1777208648 | 17.22° C | 95% | 1014 hPa | 0 mm | - | 296 W/m² | - |
| 1777208344 | 17.78° C | 94% | 1013.9 hPa | 0 mm | - | 112 W/m² | - |
| 1777208040 | 17.78° C | 96% | 1013.8 hPa | 0 mm | - | 192 W/m² | - |
| 1777207736 | 17.22° C | 96% | 1013.7 hPa | 0 mm | - | 242 W/m² | - |
| 1777207431 | 17.22° C | 98% | 1013.6 hPa | 0 mm | - | 222 W/m² | - |
| 1777207130 | 16.67° C | 99% | 1014 hPa | 0 mm | - | 176 W/m² | - |
| 1777206827 | 16.67° C | 99% | 1014 hPa | 0 mm | - | 87 W/m² | - |
| 1777206522 | 16.67° C | 99% | 1013.9 hPa | 0 mm | - | 106 W/m² | - |
| 1777206217 | 16.67° C | 99% | 1014 hPa | 0 mm | - | 85 W/m² | - |
| 1777205913 | 16.11° C | 99% | 1014 hPa | 0 mm | - | 75 W/m² | - |
| 1777205609 | 16.67° C | 99% | 1013.8 hPa | 0 mm | - | 102 W/m² | - |
| 1777205307 | 16.11° C | 99% | 1013.6 hPa | 0 mm | - | 69 W/m² | - |
| 1777205002 | 16.67° C | 99% | 1013.7 hPa | 0 mm | - | 49 W/m² | - |
| 1777204698 | 16.67° C | 99% | 1013.6 hPa | 0 mm | - | 43 W/m² | - |
| 1777204398 | 16.11° C | 99% | 1013.7 hPa | 0 mm | - | 47 W/m² | - |
| 1777204095 | 15.56° C | 99% | 1013.7 hPa | 0 mm | - | 43 W/m² | - |
| 1777203791 | 15.56° C | 99% | 1013.6 hPa | 0 mm | - | 37 W/m² | - |
| 1777203486 | 15° C | 99% | 1013.7 hPa | 0 mm | - | 33 W/m² | - |
| 1777203181 | 15° C | 99% | 1013.5 hPa | 0 mm | - | 27 W/m² | - |
| 1777202879 | 15° C | 99% | 1013.4 hPa | 0 mm | - | 24 W/m² | - |
* Rain latest hour (hover to see other rain measurements)
** Current wind speed in m/s (hover to see current wind gust speed)